SCP
0 0 0 0 0 0 0 1 0 0 0 0 0 0 0 0 0 0 0 0 0 0 0 0 0 0 0 0 1 0 1 0
0 0 0 0 0 0 0 0 0 0 0 0 0 0 0 0 0 0 0 0 0 0 0 0 0 0 1 1 1 1 1 1
0 0 0 0 1 1 0 0 0 0 0 0 0 0 0 0 0 0 0 0 0 0 0 0 0 0 0 0 1 1 1 1
0 0 0 0 0 0 0 0 0 0 0 0 0 0 0 0 0 0 0 0 0 0 0 0 0 0 0 0 0 1 0 1
0 0 0 0 0 0 0 0 0 0 0 0 0 0 0 0 0 0 0 0 0 0 0 0 0 0 0 0 0 1 0 0
0 0 0 0 0 0 0 0 0 0 0 0 0 0 0 0 0 0 0 0 0 0 0 0 0 0 0 0 0 0 0 0
0 0 0 0 0 0 0 0 0 0 0 0 0 0 0 0 0 0 0 0 0 0 0 0 0 0 0 0 0 0 0 0
0 0 0 0 0 0 0 0 0 0 0 0 0 0 0 0 0 0 0 0 0 0 0 0 0 0 0 0 0 0 0 0
0 0 0 0 0 0 0 0 0 0 0 0 0 0 0 0 0 0 0 0 0 0 0 0 0 0 0 0 0 0 0 0
0 0 0 0 0 0 0 0 0 0 0 0 0 0 0 0 0 0 0 0 0 0 0 0 0 0 0 0 0 0 0 0
0 0 0 0 0 0 0 0 0 0 0 0 0 0 0 0 0 0 0 0 0 0 0 0 0 0 0 0 0 0 0 0
0 0 0 0 0 0 0 0 0 0 0 0 0 0 0 0 0 0 0 0 0 0 0 0 0 0 0 0 0 0 0 0
0 0 0 0 0 0 0 0 0 0 0 0 0 0 0 0 0 0 0 0 0 0 0 0 0 0 0 0 0 0 0 0
0 0 0 0 0 0 0 0 0 0 0 0 0 0 0 0 0 0 0 0 0 0 0 0 0 0 0 0 0 0 0 0
0 0 0 0 0 0 0 0 0 0 0 0 0 0 0 0 0 0 0 0 0 0 0 0 0 0 0 0 0 0 0 0
0 0 0 0 0 0 0 0 0 0 0 0 0 0 0 0 0 0 0 0 0 0 0 0 0 0 0 0 0 0 0 0
0 0 0 0 0 0 0 0 0 0 0 0 0 0 0 0 0 0 0 0 0 0 0 0 0 0 0 0 0 0 0 0
0 0 0 0 0 0 0 0 0 0 0 0 0 0 0 0 0 0 0 0 0 0 0 0 0 0 0 0 0 0 0 0
0 0 0 0 0 0 0 0 0 0 0 0 0 0 0 0 0 0 0 0 0 0 0 0 0 0 0 0 0 0 0 0
Wind_Speed_500mb
30 24 22 20 19 20 23 23 19 14 13 10 10 12 12 16 17 16 17 19 20 26 31 36 40 44 48 51 54 57 60 63
19 15 13 11 11 15 21 23 20 11 12 12 14 17 18 16 17 19 22 21 33 32 33 37 39 44 49 52 56 58 59 59
13 11 9 7 8 12 16 9 7 8 9 7 10 13 13 19 16 25 26 31 43 43 45 38 39 43 47 50 51 57 59 57
21 25 23 19 16 14 13 13 11 9 7 5 10 14 19 24 30 33 37 44 46 39 38 38 39 40 46 48 50 54 61 61
19 20 19 20 22 22 19 15 11 12 7 11 21 20 25 29 33 40 48 43 41 39 39 40 39 41 45 48 48 55 57 64
16 17 18 18 17 17 14 9 10 13 12 16 25 31 43 60 61 45 42 38 39 41 41 43 48 46 43 43 41 39 41 45
14 15 14 13 11 11 11 10 11 16 22 29 51 84 68 37 38 38 36 39 41 41 44 43 43 41 39 38 38 37 34 33
6 6 5 3 6 10 15 21 24 27 34 39 31 26 30 34 38 37 43 45 44 45 43 41 39 38 39 40 41 42 36 27
8 4 6 11 15 21 25 26 29 31 28 28 31 32 33 35 35 41 43 43 46 44 46 43 44 41 42 39 28 30 34 39
4 8 12 23 27 28 27 27 31 29 27 32 29 30 32 34 35 37 42 46 49 47 48 47 42 35 32 30 31 33 34 40
14 24 28 31 36 36 29 28 30 31 33 28 26 33 35 35 38 44 47 47 48 46 43 41 36 36 40 43 43 46 41 36
30 32 32 34 38 36 33 34 26 25 28 31 36 32 34 36 40 41 41 43 42 44 49 45 42 48 55 47 34 37 39 35
33 36 32 38 38 41 39 26 29 31 25 31 34 33 36 39 38 40 39 37 35 39 46 52 49 40 38 40 39 36 37 38
35 37 48 55 43 30 33 38 33 26 27 30 33 34 36 33 34 35 35 35 39 41 44 43 45 46 45 43 43 43 41 43
37 40 47 43 39 40 36 37 34 34 32 32 36 33 28 30 32 33 37 38 41 42 41 42 40 42 44 44 35 39 46 48
36 49 47 39 35 36 38 33 38 38 38 39 38 29 29 32 33 36 38 39 40 39 40 41 42 43 43 41 46 46 45 48
43 51 45 41 39 42 45 38 40 41 39 42 38 34 33 33 34 36 39 39 39 40 43 44 43 42 49 55 59 62 55 51
51 41 40 43 45 48 48 45 46 40 44 43 41 36 33 33 34 38 39 41 42 44 45 43 42 43 51 59 69 71 55 52
37 42 44 47 51 53 52 49 53 51 47 45 42 34 37 35 36 40 41 43 44 45 43 41 43 45 55 66 72 65 50 50
Wind_Direction_500mb
194 199 210 224 234 230 223 191 211 208 214 241 273 287 301 304 303 295 310 314 305 306 301 296 293 293 293 293 290 289 286 285
159 192 193 195 207 217 217 182 195 207 234 258 276 286 293 290 299 316 320 301 315 307 301 295 293 292 289 284 284 284 283 281
150 142 119 156 151 161 167 164 171 219 253 283 317 312 299 312 309 314 313 305 317 312 300 301 297 295 289 287 284 283 281 280
107 93 97 103 110 111 129 136 118 105 93 354 342 328 312 313 304 310 314 313 315 311 309 300 295 294 293 291 288 287 288 284
99 98 98 100 100 104 109 105 83 50 44 12 0 339 329 320 316 312 311 313 307 309 307 305 303 303 299 296 293 285 286 288
83 90 100 101 96 93 85 62 44 20 13 356 347 329 320 313 301 303 310 308 308 311 307 305 310 306 298 295 298 297 296 291
87 93 92 83 73 62 30 4 329 319 324 316 305 305 301 306 309 313 309 309 310 306 305 299 303 301 300 301 299 294 282 297
106 100 87 36 352 359 351 330 312 310 308 309 320 321 309 308 312 313 314 314 311 310 306 305 302 300 299 293 288 285 280 275
91 43 329 319 312 316 313 313 313 314 313 317 313 309 310 312 313 317 317 316 315 316 311 310 307 301 297 295 295 291 291 284
43 344 335 316 311 306 306 311 312 309 306 313 313 313 317 315 314 321 321 322 319 317 311 306 302 297 285 280 285 284 282 289
309 315 316 320 313 309 306 310 310 306 306 308 311 317 317 321 327 326 323 320 315 310 308 298 296 286 282 280 282 288 291 287
309 317 315 310 308 303 304 302 302 306 303 308 321 323 323 322 321 318 313 309 311 305 290 285 286 282 287 298 296 293 290 288
312 316 321 320 315 308 307 301 304 311 315 319 320 316 317 316 315 314 314 308 309 310 304 298 307 310 308 303 300 296 293 291
325 324 319 316 314 311 310 310 306 308 309 316 315 309 312 311 316 319 320 317 317 315 312 311 311 308 306 302 298 296 291 288
325 330 324 320 315 314 306 306 305 305 308 310 313 310 314 318 316 315 313 313 312 311 310 308 307 307 305 301 296 299 298 292
332 323 318 314 316 312 311 307 306 303 303 309 310 305 311 313 312 313 314 312 312 312 311 309 308 308 304 300 299 303 302 296
322 318 316 314 315 311 308 303 303 305 299 303 302 298 302 308 311 314 314 313 313 312 311 309 309 308 304 303 299 300 303 298
317 316 317 315 314 313 309 307 302 298 295 296 295 289 293 302 309 314 314 314 312 311 309 308 308 308 305 300 297 299 301 297
317 318 319 317 315 314 309 307 303 302 295 291 290 283 293 296 307 312 315 313 312 310 308 308 307 307 306 301 302 308 303 297
Wind_Speed_850mb
30 24 22 20 19 20 23 23 19 14 13 10 10 12 12 16 17 16 17 19 20 26 31 36 40 44 48 51 54 57 60 63
19 15 13 11 11 15 21 23 20 11 12 12 14 17 18 16 17 19 22 21 33 32 33 37 39 44 49 52 56 58 59 59
13 11 9 7 8 12 16 9 7 8 9 7 10 13 13 19 16 25 26 31 43 43 45 38 39 43 47 50 51 57 59 57
21 25 23 19 16 14 13 13 11 9 7 5 10 14 19 24 30 33 37 44 46 39 38 38 39 40 46 48 50 54 61 61
19 20 19 20 22 22 19 15 11 12 7 11 21 20 25 29 33 40 48 43 41 39 39 40 39 41 45 48 48 55 57 64
16 17 18 18 17 17 14 9 10 13 12 16 25 31 43 60 61 45 42 38 39 41 41 43 48 46 43 43 41 39 41 45
14 15 14 13 11 11 11 10 11 16 22 29 51 84 68 37 38 38 36 39 41 41 44 43 43 41 39 38 38 37 34 33
6 6 5 3 6 10 15 21 24 27 34 39 31 26 30 34 38 37 43 45 44 45 43 41 39 38 39 40 41 42 36 27
8 4 6 11 15 21 25 26 29 31 28 28 31 32 33 35 35 41 43 43 46 44 46 43 44 41 42 39 28 30 34 39
4 8 12 23 27 28 27 27 31 29 27 32 29 30 32 34 35 37 42 46 49 47 48 47 42 35 32 30 31 33 34 40
14 24 28 31 36 36 29 28 30 31 33 28 26 33 35 35 38 44 47 47 48 46 43 41 36 36 40 43 43 46 41 36
30 32 32 34 38 36 33 34 26 25 28 31 36 32 34 36 40 41 41 43 42 44 49 45 42 48 55 47 34 37 39 35
33 36 32 38 38 41 39 26 29 31 25 31 34 33 36 39 38 40 39 37 35 39 46 52 49 40 38 40 39 36 37 38
35 37 48 55 43 30 33 38 33 26 27 30 33 34 36 33 34 35 35 35 39 41 44 43 45 46 45 43 43 43 41 43
37 40 47 43 39 40 36 37 34 34 32 32 36 33 28 30 32 33 37 38 41 42 41 42 40 42 44 44 35 39 46 48
36 49 47 39 35 36 38 33 38 38 38 39 38 29 29 32 33 36 38 39 40 39 40 41 42 43 43 41 46 46 45 48
43 51 45 41 39 42 45 38 40 41 39 42 38 34 33 33 34 36 39 39 39 40 43 44 43 42 49 55 59 62 55 51
51 41 40 43 45 48 48 45 46 40 44 43 41 36 33 33 34 38 39 41 42 44 45 43 42 43 51 59 69 71 55 52
37 42 44 47 51 53 52 49 53 51 47 45 42 34 37 35 36 40 41 43 44 45 43 41 43 45 55 66 72 65 50 50
Wind_Direction_850mb
194 199 210 224 234 230 223 191 211 208 214 241 273 287 301 304 303 295 310 314 305 306 301 296 293 293 293 293 290 289 286 285
159 192 193 195 207 217 217 182 195 207 234 258 276 286 293 290 299 316 320 301 315 307 301 295 293 292 289 284 284 284 283 281
150 142 119 156 151 161 167 164 171 219 253 283 317 312 299 312 309 314 313 305 317 312 300 301 297 295 289 287 284 283 281 280
107 93 97 103 110 111 129 136 118 105 93 354 342 328 312 313 304 310 314 313 315 311 309 300 295 294 293 291 288 287 288 284
99 98 98 100 100 104 109 105 83 50 44 12 0 339 329 320 316 312 311 313 307 309 307 305 303 303 299 296 293 285 286 288
83 90 100 101 96 93 85 62 44 20 13 356 347 329 320 313 301 303 310 308 308 311 307 305 310 306 298 295 298 297 296 291
87 93 92 83 73 62 30 4 329 319 324 316 305 305 301 306 309 313 309 309 310 306 305 299 303 301 300 301 299 294 282 297
106 100 87 36 352 359 351 330 312 310 308 309 320 321 309 308 312 313 314 314 311 310 306 305 302 300 299 293 288 285 280 275
91 43 329 319 312 316 313 313 313 314 313 317 313 309 310 312 313 317 317 316 315 316 311 310 307 301 297 295 295 291 291 284
43 344 335 316 311 306 306 311 312 309 306 313 313 313 317 315 314 321 321 322 319 317 311 306 302 297 285 280 285 284 282 289
309 315 316 320 313 309 306 310 310 306 306 308 311 317 317 321 327 326 323 320 315 310 308 298 296 286 282 280 282 288 291 287
309 317 315 310 308 303 304 302 302 306 303 308 321 323 323 322 321 318 313 309 311 305 290 285 286 282 287 298 296 293 290 288
312 316 321 320 315 308 307 301 304 311 315 319 320 316 317 316 315 314 314 308 309 310 304 298 307 310 308 303 300 296 293 291
325 324 319 316 314 311 310 310 306 308 309 316 315 309 312 311 316 319 320 317 317 315 312 311 311 308 306 302 298 296 291 288
325 330 324 320 315 314 306 306 305 305 308 310 313 310 314 318 316 315 313 313 312 311 310 308 307 307 305 301 296 299 298 292
332 323 318 314 316 312 311 307 306 303 303 309 310 305 311 313 312 313 314 312 312 312 311 309 308 308 304 300 299 303 302 296
322 318 316 314 315 311 308 303 303 305 299 303 302 298 302 308 311 314 314 313 313 312 311 309 309 308 304 303 299 300 303 298
317 316 317 315 314 313 309 307 302 298 295 296 295 289 293 302 309 314 314 314 312 311 309 308 308 308 305 300 297 299 301 297
317 318 319 317 315 314 309 307 303 302 295 291 290 283 293 296 307 312 315 313 312 310 308 308 307 307 306 301 302 308 303 297